Simultaneous Nadir Overpasses (SNOs) Predictions

Prediction of SNOs between LANDSAT-8 and METOP-B Satellite Orbit:

Table of predicted SNOs for the next 14.0 days since TLE Epoch: 10/16/2021
Index Date (LANDSAT-8) Time (LANDSAT-8) Lat,Lon (LANDSAT-8) SZA (LANDSAT-8 ) Date (METOP-B) Time (METOP-B) Lat,Lon (METOP-B) SZA (METOP-B ) Distance(km) Time Diff (sec)
1 10/16/2021 14:19:44 81.11, 4.92 92.58 10/16/2021 14:19:12 81.12, 4.96 92.58 0.96 32
2 10/16/2021 15:09:09 -81.15, 173.18 87.32 10/16/2021 15:09:51 -81.15, 173.15 87.30 0.63 42
3 10/19/2021 09:53:59 81.13, 71.56 93.65 10/19/2021 09:53:34 81.13, 71.74 93.66 3.27 25
4 10/19/2021 10:43:25 -81.14,-120.53 86.31 10/19/2021 10:44:14 -81.15,-120.41 86.27 2.03 49
5 10/22/2021 05:28:14 81.14, 138.15 94.68 10/22/2021 05:27:57 81.13, 138.13 94.67 0.56 17
6 10/22/2021 06:17:40 -81.16, -53.91 85.27 10/22/2021 06:18:37 -81.15, -54.00 85.26 1.69 57
7 10/25/2021 01:02:29 81.14,-155.30 95.68 10/25/2021 01:02:19 81.14,-155.12 95.70 3.13 10
8 10/25/2021 01:51:55 -81.16, 12.67 84.26 10/25/2021 01:52:59 -81.16, 12.77 84.22 1.81 64
9 10/27/2021 19:47:53 -80.11, 91.65 85.36 10/27/2021 19:46:39 -80.42, 90.51 85.22 40.60 74
10 10/27/2021 20:36:44 81.12, -89.16 96.59 10/27/2021 20:36:42 81.13, -89.14 96.60 0.65 2



Historial Predications of SNOs between LANDSAT-8 and METOP-B
